Wind_Speed
17 17 16 15 15 15 15 14 15 14 14 17 17 16 14 14 15 14 14 14 13 14 13 13 14 14 14 16 16 15 14 16 18 21 23 24 24 23 23 23 23 23 22
17 17 17 16 15 15 15 14 15 15 15 16 18 18 16 15 15 14 13 13 14 15 15 15 17 17 16 17 18 17 18 20 22 25 27 27 26 23 21 19 18 17 16
16 15 15 15 14 14 15 15 15 15 15 16 18 19 18 16 15 14 14 14 16 16 16 16 18 18 17 18 19 19 20 20 23 25 24 22 21 20 18 16 14 13 13
14 12 11 12 13 14 15 15 14 13 13 14 17 20 19 17 15 16 17 16 18 18 18 17 17 18 19 19 19 20 20 19 21 22 21 18 16 16 16 15 14 13 12
11 9 10 12 13 14 15 15 14 12 12 14 17 20 20 19 18 18 18 18 20 21 21 19 19 19 21 20 20 21 19 20 20 21 20 16 15 15 15 15 15 14 13
11 11 11 12 13 15 16 16 16 14 12 12 16 19 20 20 20 20 20 21 21 22 23 21 20 19 20 20 22 23 23 22 22 22 21 19 18 18 18 19 18 18 18
12 12 12 13 13 14 16 17 17 16 15 14 14 17 20 21 21 23 23 24 23 22 21 21 20 19 20 20 22 24 25 26 26 26 24 24 24 25 25 25 25 25 25
11 12 13 13 13 14 16 17 18 18 18 18 17 17 18 20 22 24 25 24 23 21 20 20 20 20 21 22 24 26 28 30 30 30 29 29 30 31 32 32 31 32 32
12 13 13 13 14 14 16 17 18 19 20 22 22 21 21 23 23 23 24 24 24 23 21 22 22 24 26 27 29 31 33 34 36 36 35 35 35 36 37 38 38 39 40
14 14 13 14 14 13 14 16 18 19 21 23 25 26 26 26 26 25 25 25 25 25 25 26 28 30 32 33 34 35 36 38 39 41 42 43 43 43 42 42 42 42 42
15 14 13 12 11 12 12 15 17 19 21 23 25 28 29 29 28 27 27 28 28 29 30 31 32 35 37 38 38 40 41 42 44 46 48 48 49 48 47 44 43 42 42
16 15 13 10 10 11 13 15 18 20 22 24 25 26 28 28 28 28 28 29 29 30 33 35 37 38 40 42 44 46 47 48 49 50 50 51 51 50 48 46 45 45 44
19 17 13 12 13 14 17 19 21 23 23 23 24 24 24 24 25 26 26 28 30 32 36 38 40 41 44 46 48 48 46 44 44 45 46 48 48 48 47 47 47 47 46
21 18 16 15 15 16 19 22 24 26 26 23 21 21 20 21 21 24 26 28 31 34 38 41 43 44 46 46 44 42 40 39 40 41 42 44 45 46 47 47 48 48 48
22 20 19 20 20 19 19 21 24 26 26 23 21 22 23 23 25 28 30 33 35 36 39 40 40 40 38 38 37 38 37 38 39 40 41 42 43 45 46 45 46 46 47
23 22 21 22 25 26 24 25 26 28 27 25 24 25 27 28 30 32 34 36 36 35 35 35 35 35 36 36 37 39 39 40 41 43 44 45 47 49 51 51 51 52 52
22 22 23 24 25 25 25 25 27 29 29 28 28 29 30 33 34 35 36 35 35 34 34 34 34 35 36 38 39 41 42 44 47 48 50 51 51 52 53 54 55 55 55
21 23 24 25 26 27 26 25 27 27 28 30 32 34 35 37 37 37 36 35 34 35 35 36 38 39 41 42 43 45 47 48 50 51 52 53 54 54 54 54 56 57 57
22 23 24 26 27 29 29 27 27 28 28 31 35 37 38 38 37 35 35 34 35 37 38 40 42 44 46 47 48 49 50 50 50 51 52 55 57 59 60 60 60 60 61
25 26 27 27 27 28 28 26 27 30 30 32 35 35 35 35 35 35 35 36 38 40 42 44 46 48 50 50 50 50 50 52 54 56 58 61 63 65 67 68 67 66 66
29 30 28 25 25 27 27 27 29 31 32 33 33 32 33 34 35 37 39 40 42 44 46 48 48 48 49 51 53 54 56 59 61 65 67 69 70 72 74 74 76 76 77
30 30 25 23 24 26 27 28 29 31 33 34 33 34 35 37 38 40 41 42 44 46 47 47 48 49 50 53 57 60 62 64 66 70 73 75 77 78 79 79 80 82 83
27 24 24 24 25 27 27 29 29 31 31 33 34 36 38 38 39 40 42 44 44 45 46 48 49 52 54 58 62 66 70 73 75 75 78 80 83 84 85 85 85 87 89
25 25 26 28 28 27 28 30 32 32 33 34 36 37 38 39 41 42 43 44 45 47 49 52 55 58 61 65 69 73 76 80 83 85 87 90 92 93 93 93 93 93 95
26 27 28 29 29 29 31 33 34 34 35 36 36 37 38 39 41 43 45 46 49 51 54 58 62 66 69 72 75 79 82 84 87 91 93 96 98 99 98 98 99 99 100
26 27 29 30 30 31 33 33 34 35 36 36 37 38 39 41 43 46 48 51 54 56 60 64 67 70 72 75 79 83 86 89 92 94 96 98 99 100 101 100 101 103 104
Wind_Direction
266 270 276 281 284 284 284 281 273 263 254 250 251 252 247 246 247 248 246 251 261 271 275 277 279 286 295 302 301 298 299 301 302 301 299 296 291 292 293 285 277 278 282
267 272 276 279 283 282 281 278 272 262 255 256 254 254 251 250 251 249 250 254 256 262 267 275 283 287 293 298 298 297 301 305 306 306 304 300 295 293 295 292 283 282 287
269 274 284 287 284 278 280 278 276 268 262 261 254 249 247 248 251 255 256 257 259 264 268 275 282 286 287 291 295 295 301 307 311 313 311 305 300 297 296 294 291 288 290
273 277 290 289 282 275 276 277 281 285 274 260 247 241 244 249 255 262 267 267 268 267 265 270 279 285 282 284 291 293 300 306 312 316 317 311 306 303 303 300 295 294 295
268 273 289 288 283 278 282 283 283 289 285 258 241 239 244 251 259 265 269 273 272 268 266 269 274 283 284 283 288 289 293 299 305 309 313 314 309 302 297 293 290 290 287
260 271 285 285 283 282 288 287 283 284 284 270 248 243 248 255 260 264 270 275 276 275 273 274 277 284 285 284 290 292 292 294 297 299 299 298 296 293 291 288 285 284 281
258 271 276 281 284 284 286 285 281 283 283 276 263 254 255 261 264 268 272 276 279 278 276 276 277 280 280 283 287 291 292 292 293 293 292 292 291 290 288 288 289 287 285
256 265 272 283 286 289 291 291 285 280 281 279 273 268 268 271 273 275 275 276 278 277 276 276 277 279 278 280 282 285 286 288 288 287 288 289 291 291 289 287 286 286 286
255 265 275 286 290 292 293 294 291 284 280 279 277 274 273 274 277 278 277 276 275 273 272 274 277 278 278 280 281 283 283 284 284 284 285 288 291 293 292 288 285 283 283
258 268 277 282 290 296 299 299 294 289 283 278 276 275 273 272 274 276 277 276 275 276 277 278 279 281 283 285 286 285 284 283 283 283 284 286 288 290 291 289 286 284 281
254 261 269 282 292 293 303 310 307 298 290 285 281 277 275 276 276 278 279 278 277 278 280 281 282 283 285 286 286 286 285 283 283 283 284 285 285 285 286 285 284 284 281
249 252 261 275 288 302 312 315 313 309 301 292 286 281 278 277 279 280 281 281 280 280 280 280 280 281 283 284 284 285 285 282 280 280 281 281 282 282 283 281 280 281 280
245 248 258 269 275 290 302 310 316 315 309 300 292 288 284 282 282 283 283 282 281 280 279 279 279 280 282 285 286 287 285 284 281 281 281 281 281 281 281 280 280 279 278
245 251 255 265 276 288 297 304 310 313 311 306 299 296 294 292 290 288 286 282 280 280 280 280 281 283 286 287 288 288 287 286 286 285 285 284 284 284 284 282 281 280 279
246 252 254 266 279 287 293 299 303 306 305 302 299 296 294 290 287 285 285 286 285 284 283 284 285 287 288 289 289 288 288 287 287 286 286 287 288 287 287 286 285 284 283
247 253 260 269 277 283 287 293 297 298 295 290 289 289 289 289 288 287 287 288 289 287 287 288 289 290 289 289 289 290 291 290 289 288 288 288 288 288 288 287 286 285 284
249 256 262 269 277 283 285 286 287 289 291 291 289 290 291 293 294 293 291 291 291 292 292 292 292 291 290 290 290 291 291 291 291 291 291 291 290 290 290 290 289 287 286
256 261 264 270 278 283 283 280 279 279 285 290 293 292 293 295 296 294 292 292 292 292 291 292 291 292 292 292 292 292 292 293 294 294 294 294 294 294 292 290 289 288 286
263 267 271 274 277 282 283 280 282 283 288 292 294 294 295 296 295 293 292 291 289 289 291 293 294 295 296 296 296 296 296 296 296 296 295 296 295 294 292 290 288 286 286
267 271 275 277 275 277 281 283 286 289 292 294 293 293 295 295 296 296 295 294 294 296 297 297 298 298 298 297 297 297 297 296 296 296 296 296 295 294 292 290 288 286 284
268 273 275 273 272 274 277 282 288 293 296 296 296 297 298 298 299 300 302 302 302 301 301 302 302 301 301 300 299 298 297 296 295 294 294 293 293 292 290 289 287 286 285
271 274 267 267 270 273 276 280 286 292 295 296 296 297 298 300 302 304 304 304 305 305 305 304 304 303 302 303 302 301 299 296 294 294 294 293 293 292 290 288 287 286 285
267 264 264 266 267 270 275 280 285 290 293 294 297 299 301 302 302 303 303 304 304 303 303 302 302 301 301 302 302 302 301 300 298 295 295 294 294 293 291 288 286 284 283
259 262 266 268 272 276 281 287 293 298 299 299 298 299 299 301 301 301 301 301 300 300 301 302 304 306 305 305 305 305 303 302 301 300 299 298 298 296 293 291 288 286 283
260 264 269 273 277 282 287 292 296 297 296 295 296 296 296 296 295 296 298 300 302 304 306 309 310 309 308 307 306 305 304 302 301 300 300 299 297 296 294 292 289 287 285
264 269 274 279 282 285 288 292 294 294 294 294 294 294 294 295 298 301 304 306 307 308 309 310 310 308 308 307 306 304 303 302 302 300 299 298 296 296 294 293 291 288 285
Height
5866 5865 5865 5864 5863 5862 5861 5862 5862 5861 5861 5860 5861 5860 5860 5859 5859 5859 5859 5860 5859 5859 5858 5857 5855 5854 5852 5851 5851 5851 5849 5847 5845 5843 5841 5839 5836 5833 5831 5828 5827 5826 5825
5865 5864 5863 5862 5861 5860 5859 5859 5859 5858 5858 5857 5858 5859 5858 5857 5857 5857 5856 5856 5856 5855 5854 5854 5853 5852 5850 5849 5848 5847 5846 5844 5842 5840 5838 5835 5832 5830 5827 5825 5824 5823 5822
5864 5863 5862 5861 5859 5858 5857 5857 5856 5855 5854 5854 5855 5856 5856 5855 5855 5855 5854 5853 5853 5852 5851 5850 5850 5849 5847 5846 5845 5844 5843 5841 5839 5837 5835 5831 5829 5826 5824 5823 5822 5821 5820
5862 5862 5861 5860 5858 5857 5856 5854 5853 5852 5851 5851 5852 5853 5853 5853 5852 5852 5852 5851 5850 5849 5849 5847 5847 5846 5845 5844 5843 5842 5840 5839 5836 5834 5831 5829 5826 5824 5823 5821 5820 5818 5817
5860 5860 5859 5858 5857 5856 5854 5852 5851 5850 5850 5849 5849 5850 5851 5850 5850 5850 5850 5849 5847 5846 5845 5844 5844 5844 5843 5841 5840 5838 5837 5835 5833 5831 5829 5827 5825 5823 5821 5820 5818 5816 5815
5858 5858 5857 5855 5854 5854 5853 5851 5850 5849 5849 5848 5847 5848 5848 5848 5847 5847 5846 5845 5844 5843 5842 5841 5841 5840 5839 5837 5836 5834 5832 5831 5830 5829 5827 5825 5824 5822 5820 5818 5816 5814 5813
5855 5855 5854 5853 5852 5852 5851 5850 5848 5848 5847 5846 5845 5845 5845 5844 5844 5843 5842 5841 5841 5839 5839 5838 5837 5835 5834 5833 5831 5830 5829 5827 5827 5825 5824 5823 5821 5819 5817 5815 5813 5811 5809
5852 5852 5851 5851 5850 5849 5848 5847 5846 5845 5844 5844 5842 5841 5841 5840 5839 5839 5838 5837 5836 5835 5834 5833 5831 5830 5829 5828 5826 5825 5824 5822 5821 5820 5819 5817 5816 5814 5812 5810 5808 5806 5804
5850 5850 5849 5849 5848 5847 5846 5845 5843 5842 5841 5840 5839 5838 5837 5836 5835 5834 5834 5832 5831 5831 5830 5829 5827 5825 5824 5823 5821 5820 5818 5816 5814 5813 5812 5810 5808 5807 5805 5803 5801 5799 5797
5848 5848 5847 5847 5846 5845 5844 5842 5841 5839 5838 5837 5835 5834 5833 5832 5831 5830 5830 5829 5828 5827 5826 5824 5822 5821 5819 5817 5815 5814 5812 5810 5808 5806 5804 5802 5800 5799 5797 5794 5792 5790 5789
5845 5845 5844 5845 5844 5842 5841 5839 5838 5836 5835 5833 5831 5830 5828 5828 5827 5826 5825 5824 5823 5822 5820 5819 5817 5815 5812 5810 5808 5806 5804 5802 5800 5797 5795 5793 5791 5790 5787 5785 5782 5780 5778
5841 5842 5842 5842 5841 5839 5837 5836 5835 5834 5831 5829 5827 5825 5824 5823 5822 5821 5820 5819 5818 5816 5814 5812 5810 5807 5805 5803 5800 5797 5794 5792 5789 5787 5786 5783 5781 5779 5777 5775 5772 5770 5767
5838 5838 5839 5838 5838 5836 5835 5833 5832 5830 5827 5825 5822 5821 5820 5818 5818 5817 5815 5813 5811 5809 5807 5804 5801 5799 5796 5793 5790 5787 5784 5782 5779 5777 5775 5772 5770 5768 5766 5763 5761 5759 5756
5834 5835 5835 5835 5834 5832 5831 5829 5828 5826 5824 5821 5819 5817 5815 5814 5813 5811 5809 5806 5804 5802 5799 5796 5793 5790 5787 5784 5781 5778 5774 5772 5770 5768 5766 5763 5760 5757 5755 5752 5750 5747 5745
5831 5832 5832 5832 5830 5828 5827 5825 5824 5822 5820 5817 5815 5813 5811 5809 5807 5804 5802 5799 5796 5793 5791 5787 5783 5780 5778 5775 5772 5769 5766 5764 5761 5759 5758 5755 5751 5747 5745 5742 5739 5737 5734
5827 5828 5828 5827 5825 5824 5822 5821 5819 5818 5816 5813 5811 5809 5806 5803 5801 5798 5795 5792 5789 5785 5781 5778 5776 5774 5771 5767 5764 5761 5758 5756 5753 5751 5749 5747 5743 5739 5735 5732 5730 5726 5723
5824 5824 5823 5822 5820 5818 5817 5816 5815 5813 5810 5808 5805 5803 5801 5797 5794 5790 5788 5784 5780 5777 5774 5771 5768 5766 5763 5759 5757 5754 5750 5747 5744 5741 5738 5735 5732 5729 5726 5721 5717 5714 5711
5819 5818 5818 5816 5814 5812 5811 5810 5808 5807 5804 5802 5799 5796 5792 5790 5786 5783 5780 5777 5773 5770 5767 5764 5760 5757 5754 5750 5748 5745 5742 5739 5735 5731 5727 5724 5721 5718 5715 5711 5706 5701 5698
5813 5813 5812 5810 5808 5807 5805 5803 5802 5800 5797 5794 5791 5788 5784 5781 5778 5775 5773 5770 5767 5764 5760 5756 5752 5748 5744 5741 5738 5735 5732 5728 5725 5721 5717 5713 5709 5705 5701 5697 5694 5689 5684
5807 5806 5806 5804 5803 5801 5799 5797 5796 5794 5791 5787 5784 5780 5776 5774 5771 5768 5766 5763 5760 5756 5753 5748 5744 5740 5736 5732 5729 5726 5722 5718 5714 5710 5706 5702 5697 5691 5686 5682 5677 5673 5669
5801 5801 5800 5798 5796 5795 5793 5791 5789 5787 5784 5780 5777 5773 5770 5767 5764 5761 5758 5755 5752 5748 5743 5739 5735 5731 5726 5721 5717 5715 5711 5706 5702 5696 5691 5686 5681 5676 5670 5665 5659 5654 5649
5795 5795 5794 5792 5790 5789 5786 5784 5782 5780 5777 5774 5770 5767 5764 5760 5757 5753 5750 5747 5743 5738 5734 5729 5724 5720 5715 5709 5703 5698 5695 5694 5688 5680 5674 5668 5662 5658 5653 5647 5641 5634 5627
5789 5789 5788 5786 5784 5781 5779 5777 5774 5772 5770 5767 5764 5760 5757 5753 5749 5746 5741 5737 5733 5728 5724 5719 5713 5708 5703 5696 5689 5682 5675 5670 5667 5662 5656 5649 5642 5636 5631 5626 5620 5614 5606
5783 5783 5782 5780 5778 5775 5773 5770 5768 5765 5762 5759 5756 5752 5748 5744 5740 5736 5732 5727 5723 5718 5713 5707 5700 5693 5686 5679 5672 5665 5658 5648 5640 5636 5629 5620 5614 5607 5602 5597 5592 5586 5577
5777 5777 5775 5774 5772 5770 5767 5764 5761 5758 5754 5751 5747 5744 5740 5735 5731 5727 5723 5718 5712 5706 5700 5692 5685 5677 5669 5661 5653 5644 5635 5627 5618 5612 5609 5597 5588 5579 5573 5568 5561 5554 5545
5772 5771 5770 5768 5766 5763 5760 5757 5754 5751 5747 5743 5739 5735 5731 5727 5722 5717 5712 5707 5701 5694 5687 5678 5670 5662 5653 5644 5634 5624 5614 5604 5593 5584 5580 5574 5564 5556 5546 5541 5531 5520 5510